[[{"header":{"parameterUnit":"m.s-1","parameterCategory":1,"la1":30.2991,"la2":30.254,"lo1":-89.0895,"lo2":-89.0444,"dy":0.0017,"dx":0.0017,"nx":28,"ny":28,"refTime":"2024-04-19T09:00:00:Z","depth":0,"parameterNumber":2,"parameterNumberName":"U-component_of_WINDS"},"data":[0,0,0,0,0,0,0,0,0,0,0,0,0,0,0,0,0,0,0,0,0,0,0,0,0,0,0,0,0,0,0,0,0,0,0,0,0,0,0,0,0,0,0,0,0,0,0,0,0,0,0,0,0,0,0,0,0,0,-0.219,-0.2189,0,-0.2136,-0.2136,-0.2135,-0.2108,-0.2108,-0.2108,-0.2108,-0.2055,-0.2054,-0.2052,0,0,0,0,0,0,0,0,0,0,0,0,0,-0.2271,-0.2269,-0.219,-0.2189,-0.2188,-0.2136,-0.2136,-0.2135,-0.2108,-0.2108,-0.2108,-0.2108,-0.2055,-0.2054,-0.2052,0,0,0,0,0,0,0,0,0,0,0,0,0,-0.2228,-0.2269,-0.219,-0.2169,-0.2166,-0.2137,-0.2136,-0.2135,-0.2108,-0.2108,-0.2108,-0.2108,-0.2056,-0.2054,-0.2052,-0.204,0,0,-0.2045,-0.2045,0,0,0,0,0,0,0,0,-0.2231,-0.2225,-0.2172,-0.217,-0.2167,-0.2129,-0.2145,-0.2103,-0.2108,-0.213,-0.2108,-0.2108,-0.208,-0.2076,-0.2066,-0.2037,-0.2035,-0.2045,-0.2044,-0.2043,-0.2042,0,0,0,0,0,0,0,-0.2234,-0.2228,-0.2169,-0.2172,-0.2169,-0.2163,-0.2157,-0.2137,-0.2106,-0.2128,-0.2126,-0.212,-0.2078,-0.2068,-0.2064,-0.2034,-0.2045,-0.2043,-0.2042,-0.2041,-0.1994,-0.1994,0,0,0,0,0,0,-0.224,-0.223,-0.217,-0.2167,-0.22,-0.2161,-0.2154,-0.2141,-0.2106,-0.2101,-0.212,-0.2119,-0.2071,-0.2067,-0.2062,-0.2046,-0.2043,-0.2041,-0.204,-0.1994,-0.1994,-0.1994,0,0,0,0,0,0,-0.2242,-0.2235,-0.2172,-0.2198,-0.219,-0.216,-0.2145,-0.214,-0.213,-0.21,-0.2094,-0.2115,-0.2071,-0.2065,-0.2046,-0.2044,-0.204,-0.2038,-0.1994,-0.1994,-0.1994,-0.2014,0,0,0,0,0,0,-0.2244,-0.2235,-0.223,-0.2198,-0.2188,-0.2156,-0.2145,-0.2139,-0.2126,-0.2124,-0.2094,-0.2089,-0.2071,-0.2049,-0.2044,-0.2041,-0.2037,-0.1994,-0.1994,-0.1994,-0.2013,-0.2015,-0.2016,0,0,0,0,0,-0.2247,-0.2237,-0.223,-0.2222,-0.218,-0.2156,-0.215,-0.213,-0.2126,-0.212,-0.2102,-0.209,-0.2045,-0.2047,-0.2041,-0.2038,-0.1994,-0.1994,-0.1994,-0.2013,-0.2014,-0.2016,0,0,0,0,0,0,-0.227,-0.2233,-0.2224,-0.2203,-0.2183,-0.2151,-0.2143,-0.2132,-0.2112,-0.2111,-0.2087,-0.208,-0.2063,-0.2049,-0.2051,-0.2025,-0.2019,-0.2018,-0.2035,-0.2036,-0.2037,-0.2041,-0.2035,0,0,0,0,0,-0.2272,-0.2255,-0.2224,-0.2209,-0.2199,-0.2173,-0.2162,-0.2148,-0.2126,-0.2117,-0.2097,-0.2076,-0.2058,-0.2046,-0.2028,-0.2011,-0.2005,-0.2006,-0.2008,-0.2009,-0.2008,-0.1999,-0.2,-0.1994,-0.1994,-0.1994,0,0,-0.2277,-0.2255,-0.2245,-0.2213,-0.2195,-0.2179,-0.2166,-0.2148,-0.2136,-0.2114,-0.2095,-0.2079,-0.2055,-0.2038,-0.2029,-0.2025,-0.2008,-0.2009,-0.201,-0.2008,-0.2,-0.2,-0.2001,-0.1994,-0.1994,-0.1994,0,0,-0.2278,-0.2259,-0.2245,-0.2228,-0.2202,-0.2185,-0.2182,-0.2153,-0.2141,-0.2121,-0.2105,-0.2091,-0.2059,-0.2043,-0.2031,-0.2028,-0.2016,-0.2023,-0.2029,-0.2021,-0.2021,-0.2022,-0.2021,-0.2021,-0.2022,-0.2022,-0.2022,0,-0.2288,-0.2261,-0.2239,-0.2223,-0.221,-0.219,-0.2176,-0.2161,-0.213,-0.2122,-0.2118,-0.2079,-0.2062,-0.204,-0.204,-0.203,-0.2027,-0.2025,-0.2023,-0.2023,-0.2023,-0.2022,-0.2022,-0.2023,-0.2023,-0.2023,-0.2023,0,-0.2275,-0.2257,-0.2249,-0.222,-0.2205,-0.219,-0.2168,-0.2156,-0.2144,-0.2128,-0.2109,-0.2087,-0.2065,-0.2059,-0.2047,-0.2036,-0.2035,-0.2027,-0.2021,-0.2025,-0.2024,-0.2023,-0.2024,-0.2024,-0.2024,-0.2023,0,0,-0.2286,-0.2247,-0.2244,-0.2231,-0.2202,-0.2188,-0.2173,-0.2151,-0.2142,-0.2122,-0.211,-0.2085,-0.2078,-0.2064,-0.205,-0.2043,-0.2043,-0.2037,-0.2036,-0.2039,-0.2032,-0.2038,-0.2038,-0.2036,-0.2036,-0.2036,-0.2034,0,-0.2283,-0.2254,-0.2235,-0.2214,-0.2198,-0.218,-0.2167,-0.2149,-0.2134,-0.2119,-0.2103,-0.2086,-0.2078,-0.207,-0.2062,-0.2045,-0.2042,-0.2045,-0.2025,-0.2024,-0.2031,-0.2037,-0.2043,-0.2042,-0.2034,-0.2033,-0.2033,0,-0.2275,-0.2256,-0.2233,-0.2207,-0.2199,-0.2188,-0.2167,-0.2152,-0.2132,-0.2122,-0.2107,-0.2093,-0.2078,-0.2074,-0.2053,-0.2056,-0.2047,-0.2037,-0.2037,-0.2034,-0.2029,-0.2034,-0.2041,-0.2041,-0.2032,-0.2033,-0.2033,0,-0.2286,-0.2255,-0.2237,-0.2227,-0.2196,-0.2189,-0.2176,-0.2155,-0.2143,-0.2125,-0.2117,-0.2098,-0.2088,-0.2073,-0.2055,-0.2054,-0.2037,-0.2031,-0.2029,-0.2029,-0.2026,-0.2026,-0.2031,-0.202,-0.202,-0.202,-0.202,0,-0.2284,-0.2271,-0.2242,-0.2232,-0.2217,-0.2197,-0.2183,-0.2169,-0.2151,-0.2138,-0.2122,-0.211,-0.2087,-0.2073,-0.2059,-0.2045,-0.204,-0.2032,-0.2029,-0.2033,-0.2034,-0.2027,-0.2026,-0.202,-0.202,-0.202,-0.202,0,-0.2294,-0.2274,-0.2254,-0.2227,-0.222,-0.221,-0.2187,-0.2177,-0.2162,-0.2146,-0.2141,-0.2118,-0.2101,-0.2082,-0.2059,-0.205,-0.2036,-0.2031,-0.2043,-0.2041,-0.2041,-0.2041,-0.2041,-0.204,-0.203,-0.203,-0.203,0,-0.2293,-0.2283,-0.2255,-0.2245,-0.2232,-0.2216,-0.2205,-0.2185,-0.2173,-0.215,-0.2143,-0.2125,-0.2109,-0.2083,-0.2065,-0.2047,-0.2041,-0.2043,-0.2039,-0.2044,-0.2042,-0.2043,-0.2042,-0.2044,-0.2044,-0.2044,-0.2044,0,-0.2295,-0.2286,-0.227,-0.225,-0.2237,-0.222,-0.2203,-0.2196,-0.2173,-0.2162,-0.2144,-0.2132,-0.2109,-0.2091,-0.2072,-0.2059,-0.2048,-0.2046,-0.2045,-0.2049,-0.2057,-0.2053,-0.2046,-0.2046,-0.2045,-0.2045,-0.2045,-0.2045,-0.23,-0.229,-0.227,-0.2252,-0.2237,-0.2222,-0.2212,-0.2196,-0.2181,-0.216,-0.215,-0.2132,-0.2114,-0.2087,-0.2075,-0.2062,-0.2058,-0.2056,-0.2056,-0.2055,-0.2057,-0.2059,-0.2058,-0.2058,-0.2058,-0.2058,-0.2058,0,-0.2301,-0.2287,-0.2271,-0.2249,-0.2235,-0.2226,-0.2208,-0.2197,-0.2182,-0.2165,-0.2151,-0.2131,-0.2115,-0.2096,-0.2079,-0.2072,-0.2067,-0.2068,-0.2068,-0.2066,-0.2061,-0.2064,-0.2073,-0.2073,-0.2073,-0.2073,-0.2073,-0.2073,-0.23,-0.2284,-0.2273,-0.225,-0.2236,-0.2219,-0.2209,-0.2196,-0.2183,-0.2162,-0.2148,-0.2136,-0.2119,-0.21,-0.2086,-0.2081,-0.2075,-0.2078,-0.2072,-0.2067,-0.2066,-0.2065,-0.2068,-0.2077,-0.2077,-0.2078,-0.2078,-0.2078]},{"header":{"parameterUnit":"m.s-1","parameterCategory":1,"la1":30.2991,"la2":30.254,"lo1":-89.0895,"lo2":-89.0444,"dy":0.0017,"dx":0.0017,"nx":28,"ny":28,"refTime":"2024-04-19T09:00:00:Z","depth":0,"parameterNumber":3,"parameterNumberName":"V-component_of_WINDS"},"data":[0,0,0,0,0,0,0,0,0,0,0,0,0,0,0,0,0,0,0,0,0,0,0,0,0,0,0,0,0,0,0,0,0,0,0,0,0,0,0,0,0,0,0,0,0,0,0,0,0,0,0,0,0,0,0,0,0,0,3.1927,3.1927,0,3.195,3.195,3.195,3.1985,3.1985,3.1986,3.1986,3.2008,3.2008,3.2008,0,0,0,0,0,0,0,0,0,0,0,0,0,3.1911,3.1911,3.1927,3.1927,3.1927,3.1949,3.195,3.195,3.1985,3.1985,3.1986,3.1987,3.2008,3.2008,3.2008,0,0,0,0,0,0,0,0,0,0,0,0,0,3.1924,3.1911,3.1927,3.1947,3.1949,3.1949,3.195,3.195,3.1984,3.1985,3.1986,3.1987,3.2008,3.2008,3.2008,3.1989,0,0,3.2007,3.2007,0,0,0,0,0,0,0,0,3.1923,3.1925,3.1944,3.1946,3.1948,3.1965,3.1952,3.1963,3.1984,3.1971,3.1987,3.1988,3.1993,3.1994,3.1996,3.199,3.1991,3.2007,3.2007,3.2007,3.2007,0,0,0,0,0,0,0,3.1922,3.1924,3.1936,3.1944,3.1947,3.1955,3.1958,3.1954,3.1976,3.1972,3.1975,3.1977,3.1994,3.1996,3.1997,3.1991,3.2007,3.2007,3.2007,3.2007,3.197,3.1969,0,0,0,0,0,0,3.1919,3.1923,3.1935,3.1936,3.1938,3.1954,3.1957,3.1959,3.1976,3.198,3.1976,3.1979,3.1996,3.1997,3.1998,3.1977,3.2007,3.2007,3.2007,3.1971,3.197,3.1969,0,0,0,0,0,0,3.1918,3.192,3.1934,3.193,3.1933,3.1954,3.1955,3.1959,3.1961,3.198,3.1983,3.1974,3.1996,3.1998,3.1991,3.1978,3.2007,3.2007,3.1972,3.1971,3.1969,3.1934,0,0,0,0,0,0,3.1918,3.1919,3.1913,3.193,3.1933,3.1927,3.1954,3.1958,3.1961,3.1964,3.1979,3.1982,3.1997,3.1991,3.1991,3.1978,3.2007,3.1973,3.1972,3.197,3.1937,3.1932,3.1928,0,0,0,0,0,3.1917,3.1901,3.1912,3.1913,3.1925,3.1926,3.1928,3.1946,3.196,3.1953,3.1965,3.1982,3.1979,3.199,3.199,3.1977,3.1974,3.1972,3.197,3.1939,3.1933,3.1928,0,0,0,0,0,0,3.1881,3.1904,3.1916,3.1906,3.1914,3.1932,3.1924,3.1939,3.1943,3.1946,3.1968,3.1971,3.1961,3.1969,3.198,3.196,3.1979,3.1977,3.1955,3.195,3.1946,3.1944,3.2007,0,0,0,0,0,3.1872,3.1872,3.1892,3.188,3.1884,3.1903,3.1905,3.1918,3.1927,3.1931,3.1942,3.195,3.1951,3.1951,3.1953,3.1938,3.1942,3.193,3.1925,3.1921,3.1919,3.1912,3.1906,3.1962,3.1962,3.1962,0,0,3.1853,3.1865,3.1864,3.1873,3.1881,3.188,3.1906,3.1903,3.1902,3.193,3.1924,3.1933,3.1943,3.1932,3.1928,3.1938,3.1905,3.1919,3.1915,3.1915,3.1909,3.1903,3.1899,3.196,3.196,3.1961,0,0,3.1818,3.1827,3.1819,3.1827,3.1839,3.1852,3.185,3.1866,3.1873,3.1868,3.1889,3.1888,3.1889,3.1895,3.1899,3.1866,3.1881,3.1866,3.1842,3.1835,3.183,3.1827,3.1815,3.181,3.1864,3.1864,3.1864,0,3.1792,3.1792,3.1813,3.1809,3.1812,3.1838,3.183,3.1836,3.1848,3.1849,3.1861,3.1863,3.1872,3.1862,3.1855,3.1857,3.1854,3.1864,3.1829,3.1826,3.1823,3.1811,3.1807,3.1862,3.1862,3.1862,3.1862,0,3.176,3.1759,3.1751,3.1762,3.1765,3.1759,3.1778,3.1778,3.1792,3.1803,3.1798,3.1809,3.1814,3.1813,3.1825,3.1805,3.1811,3.1826,3.1845,3.1815,3.1805,3.1801,3.1859,3.186,3.186,3.1861,0,0,3.1701,3.1725,3.1722,3.1728,3.1743,3.1743,3.1737,3.1743,3.1742,3.175,3.1745,3.1746,3.176,3.1764,3.1777,3.1771,3.1744,3.1786,3.1787,3.1778,3.1722,3.1711,3.1705,3.1754,3.1754,3.1753,3.1721,0,3.1669,3.1662,3.1681,3.1669,3.1669,3.1694,3.1689,3.1698,3.1709,3.1709,3.1721,3.1721,3.1739,3.1742,3.1737,3.1748,3.1733,3.1751,3.175,3.175,3.1746,3.17,3.1688,3.1657,3.1717,3.1717,3.1716,0,3.163,3.1636,3.1624,3.1641,3.1641,3.1637,3.1643,3.1644,3.1654,3.1662,3.1667,3.1683,3.1679,3.1698,3.1692,3.1704,3.1704,3.171,3.1709,3.1709,3.1731,3.1698,3.1648,3.1643,3.171,3.1711,3.1711,0,3.1588,3.1593,3.1587,3.1591,3.161,3.1607,3.1614,3.1626,3.1628,3.1633,3.1635,3.1639,3.1642,3.1644,3.1661,3.1674,3.1653,3.1674,3.1659,3.1658,3.1653,3.1653,3.1601,3.1654,3.1654,3.1654,3.1654,0,3.1549,3.1541,3.1569,3.1565,3.1556,3.1578,3.1569,3.1579,3.1589,3.1587,3.1608,3.1606,3.1628,3.1628,3.1641,3.1634,3.1635,3.1641,3.1644,3.1639,3.1638,3.1639,3.1641,3.1653,3.1653,3.1653,3.1654,0,3.1501,3.1519,3.1514,3.1533,3.1538,3.153,3.1546,3.1543,3.1556,3.1553,3.1553,3.1572,3.1573,3.1591,3.1595,3.1604,3.1591,3.1598,3.1587,3.159,3.1574,3.1575,3.1521,3.1514,3.1572,3.1571,3.1571,0,3.1475,3.1469,3.1488,3.1489,3.1495,3.1496,3.1499,3.152,3.1521,3.1533,3.1528,3.1531,3.1534,3.1534,3.1548,3.1551,3.1559,3.154,3.156,3.1554,3.1558,3.1558,3.1558,3.1535,3.1535,3.1534,3.1533,0,3.1426,3.1436,3.1439,3.1446,3.1448,3.1454,3.1461,3.146,3.1484,3.1484,3.1486,3.1488,3.1493,3.1496,3.1501,3.1509,3.1524,3.1527,3.1524,3.1518,3.1512,3.1514,3.1576,3.1528,3.1529,3.1529,3.1529,3.153,3.1388,3.1385,3.1397,3.14,3.1408,3.1414,3.1412,3.1425,3.1427,3.1433,3.1445,3.1445,3.1455,3.1465,3.147,3.147,3.148,3.1475,3.1474,3.1472,3.1469,3.1512,3.1471,3.1471,3.1471,3.1472,3.1472,0,3.1341,3.135,3.1353,3.1363,3.1365,3.1381,3.139,3.139,3.139,3.1398,3.1402,3.1403,3.1406,3.142,3.1424,3.142,3.1428,3.1421,3.1421,3.1422,3.146,3.1462,3.1415,3.1415,3.1415,3.1415,3.1415,3.1415,3.1316,3.1311,3.1322,3.132,3.133,3.1331,3.1334,3.134,3.1347,3.1348,3.135,3.136,3.1371,3.1375,3.1378,3.1382,3.1382,3.1373,3.1379,3.1414,3.1419,3.1425,3.1427,3.1373,3.1372,3.1341,3.1341,3.1341]}]]